Simultaneous Nadir Overpasses (SNOs) Predictions

Prediction of SNOs between METOP-A and NOAA-19 Satellite Orbit:

Table of predicted SNOs for the next 14.0 days since TLE Epoch: 12/13/2019
Index Date (METOP-A) Time (METOP-A) Lat,Lon (METOP-A) SZA (METOP-A ) Date (NOAA-19) Time (NOAA-19) Lat,Lon (NOAA-19) SZA (NOAA-19 ) Distance(km) Time Diff (sec)
1 12/20/2019 00:53:43 80.23,-179.65 103.89 12/20/2019 00:52:31 80.24, 178.97 103.83 26.13 72
2 12/20/2019 01:44:26 -80.19, -12.82 76.18 12/20/2019 01:43:25 -80.19, -12.99 76.19 3.24 61
3 12/20/2019 02:35:07 80.16, 154.28 103.80 12/20/2019 02:34:29 80.18, 154.35 103.81 2.25 38
4 12/20/2019 03:25:48 -80.18, -38.28 76.19 12/20/2019 03:25:25 -80.17, -38.26 76.20 0.44 23
5 12/20/2019 04:16:28 80.18, 129.12 103.82 12/20/2019 04:16:29 80.17, 129.08 103.80 2.01 1
6 12/20/2019 05:07:10 -80.16, -63.74 76.21 12/20/2019 05:07:26 -80.18, -63.86 76.20 2.83 16
7 12/20/2019 05:57:50 80.17, 103.66 103.81 12/20/2019 05:58:30 80.17, 103.48 103.81 3.26 40
8 12/20/2019 06:48:31 -80.15, -89.20 76.22 12/20/2019 06:49:25 -80.16, -89.14 76.20 1.84 54




NCC Satellite Simultaneous Nadir Overpasses (SNOs) Prediction Service
